Weather in La Palma

Panama     8°21′28″N   78°09′47″W
temp.,
°C
wind,
m/s
gust,
m/s
humid.,
%
clouds,
%
prec.,
mm/h
press.,
hPa
HPBL,
m
6 march, sat
sat601:00+24nne69839 0.0 1011740
04:00+25nne698145 0.1 1010791
07:00+24nne688245 0.1 1012646
10:00+27nne467114 0.0 1013961
13:00+27w677423 0.1 1010428
16:00+28w447221 0.3 1007371
19:00+27nne7107623 0.3 1009839
22:00+26nne610819 0.0 1012851
7 march, sun
sun701:00+25nne6118322 0.1 1011723
04:00+25n61082100 0.2 1011808
07:00+25n6108392 0.3 1012803
10:00+27n477676 0.4 1014892
13:00+27nne477851 4.7 1010678
16:00+28nne510811 3.7 1009877
19:00+27n6107923 3.9 1010973
22:00+26nne5108246 0.2 1012945
8 march, mon
mon801:00+26n6118461 0.6 1012881
04:00+26n6118487 0.3 1010871
07:00+26n6118483 0.9 1011856
10:00+26n6108596 1.9 1013800
13:00+27nne488399 5.2 1011742
16:00+28nne71075100 5.1 1009754
19:00+27nne61081100 5.4 1011828
22:00+26nne71181100 0.1 1013874
9 march, tue
tue901:00+26nne7118389 0.3 1011807
04:00+26nne81383100 0.8 1010807
07:00+26ne7128198 0.8 1011944
10:00+28nne697595 0.0 1013868
13:00+28ne247698 0.1 1011224
16:00+28n5774100 0.3 1008370
19:00+27nne7117999 0.4 1010754
22:00+26nne71181100 0.0 1012899
10 march, wed
wed1001:00+25nne5882100 0.1 1011677
04:00+25nne5885100 0.1 1009622
07:00+25ne588593 0.3 1010670
10:00+27ne3676100 0.1 1012860
13:00+27sw4477100 2.0 1011389
16:00+26ssw7881100 5.8 1009345
19:00+26ssw3379100 8.6 1011185
22:00+24ene5687100 1.0 1013299